This is the latest recevied weather packets stored in our database for station/object WA9NNN-10. If no packets are shown the sender has not sent any weather packets the latest 1 day(s).
| Time | Temp. | Humidity | Pressure | Rain* | Wind** | Luminosity | Snow |
|---|---|---|---|---|---|---|---|
| 1777997497 | 13.89° C | 42% | 1008.5 hPa | 0 mm | 0.89 m/s, 239° | - | - |
| 1777997196 | 13.89° C | 42% | 1008.5 hPa | 0 mm | 0.45 m/s, 299° | - | - |
| 1777996897 | 14.44° C | 41% | 1008.5 hPa | 0 mm | 1.79 m/s, 326° | - | - |
| 1777996596 | 14.44° C | 41% | 1008.7 hPa | 0 mm | 1.34 m/s, 289° | - | - |
| 1777996297 | 14.44° C | 45% | 1008.4 hPa | 0 mm | 4.47 m/s, 328° | - | - |
| 1777995996 | 13.89° C | 44% | 1008.4 hPa | 0 mm | 1.34 m/s, 228° | - | - |
| 1777995696 | 13.33° C | 45% | 1008.3 hPa | 0 mm | 1.34 m/s, 321° | - | - |
| 1777995397 | 13.33° C | 50% | 1008.4 hPa | 0 mm | 2.24 m/s, 295° | - | - |
| 1777995096 | 12.78° C | 52% | 1008.3 hPa | 0 mm | 0.45 m/s, 319° | - | - |
| 1777994797 | 12.78° C | 53% | 1008.3 hPa | 0 mm | 0.89 m/s, 265° | - | - |
| 1777994497 | 12.22° C | 55% | 1008.3 hPa | 0 mm | 1.34 m/s, 269° | - | - |
| 1777994196 | 12.22° C | 55% | 1008.5 hPa | 0 mm | 0.45 m/s, 283° | - | - |
| 1777993897 | 12.22° C | 57% | 1008.5 hPa | 0 mm | 0.89 m/s, 334° | - | - |
| 1777993596 | 11.67° C | 60% | 1008.4 hPa | 0 mm | 0.45 m/s, 333° | - | - |
| 1777993297 | 11.67° C | 62% | 1008.4 hPa | 0 mm | 1.34 m/s, 250° | - | - |
| 1777992996 | 11.11° C | 63% | 1008.5 hPa | 0 mm | 0.45 m/s, 265° | - | - |
| 1777992696 | 11.11° C | 62% | 1008.2 hPa | 0 mm | 0.45 m/s, 282° | - | - |
| 1777992396 | 10.56° C | 63% | 1008.2 hPa | 0 mm | 0 m/s | - | - |
| 1777992096 | 10.56° C | 67% | 1008.3 hPa | 0 mm | 1.34 m/s, 341° | - | - |
| 1777991796 | 10.56° C | 71% | 1008.3 hPa | 0 mm | 0.89 m/s, 347° | - | - |
| 1777991496 | 10.56° C | 73% | 1008.5 hPa | 0 mm | 1.79 m/s, 328° | - | - |
| 1777991196 | 10.56° C | 75% | 1008.6 hPa | 0 mm | 1.79 m/s, 360° | - | - |
| 1777990897 | 10.56° C | 76% | 1008.6 hPa | 0 mm | 0.45 m/s, 216° | - | - |
| 1777990596 | 10.56° C | 77% | 1008.6 hPa | 0 mm | 0.45 m/s, 205° | - | - |
| 1777990296 | 10° C | 77% | 1008.9 hPa | 0 mm | 0 m/s | - | - |
* Rain latest hour (hover to see other rain measurements)
** Current wind speed in m/s (hover to see current wind gust speed)